Location: Newark
(54.6833°N, 25.2833°E)
Time: 17:38:34
(UTC+00:00)

Altair - Pass Details

Date: 20 November 2019
Orbit: 1502 x 1682 km, 47.2° (Epoch: 14 December)

Event Time Altitude Azimuth Distance (km) Brightness Sun altitude
Rises 23:10:29 0° 185° (S) 4,651 - -52.9°
Reaches altitude 10° 23:14:57 10° 166° (SSE) 3,657 - -52.6°
Maximum altitude 23:20:08 17° 131° (SE) 3,150 - -52.3°
Exits shadow 23:25:06 11° 97° (E) 3,619 9.6 -51.9°
Drops below altitude 10° 23:25:19 10° 96° (E) 3,658 9.6 -51.9°
Sets 23:29:45 0° 77° (ENE) 4,653 10.4 -51.5°
